This is the latest recevied weather packets stored in our database for station/object KC3AWA. If no packets are shown the sender has not sent any weather packets the latest 10 day(s).
| Time | Temp. | Humidity | Pressure | Rain* | Wind** | Luminosity | Snow |
|---|---|---|---|---|---|---|---|
| 1777590843 | 8.33° C | 64% | 1014.4 hPa | 0 mm | - | 42 W/m² | - |
| 1777590540 | 8.33° C | 64% | 1014.3 hPa | 0 mm | - | 55 W/m² | - |
| 1777590236 | 8.33° C | 65% | 1014 hPa | 0 mm | - | 72 W/m² | - |
| 1777589934 | 8.33° C | 62% | 1014.4 hPa | 0 mm | - | 80 W/m² | - |
| 1777589630 | 8.33° C | 64% | 1014.1 hPa | 0 mm | - | 80 W/m² | - |
| 1777589327 | 8.33° C | 61% | 1014.3 hPa | 0 mm | - | 92 W/m² | - |
| 1777589024 | 8.33° C | 63% | 1014.2 hPa | 0 mm | - | 84 W/m² | - |
| 1777588720 | 8.33° C | 61% | 1013.9 hPa | 0 mm | - | 71 W/m² | - |
| 1777588416 | 8.89° C | 62% | 1014.2 hPa | 0 mm | - | 76 W/m² | - |
| 1777588111 | 8.89° C | 61% | 1014.2 hPa | 0 mm | - | 113 W/m² | - |
| 1777587808 | 8.89° C | 62% | 1014.2 hPa | 0 mm | - | 101 W/m² | - |
| 1777587507 | 8.89° C | 61% | 1014.2 hPa | 0 mm | - | 95 W/m² | - |
| 1777587204 | 8.89° C | 61% | 1014.2 hPa | 0 mm | - | 161 W/m² | - |
| 1777586899 | 8.89° C | 62% | 1014.3 hPa | 0 mm | - | 149 W/m² | - |
| 1777586595 | 8.89° C | 61% | 1014.2 hPa | 0 mm | - | 112 W/m² | - |
| 1777586291 | 8.89° C | 60% | 1014.4 hPa | 0 mm | - | 106 W/m² | - |
| 1777585989 | 8.89° C | 63% | 1014.1 hPa | 0 mm | - | 151 W/m² | - |
| 1777585684 | 8.89° C | 61% | 1014.1 hPa | 0 mm | - | 247 W/m² | - |
| 1777585378 | 8.89° C | 62% | 1014.3 hPa | 0 mm | - | 141 W/m² | - |
| 1777585073 | 8.89° C | 65% | 1014 hPa | 0 mm | - | 121 W/m² | - |
| 1777584770 | 8.89° C | 65% | 1014 hPa | 0 mm | - | 163 W/m² | - |
| 1777584468 | 8.89° C | 68% | 1014.2 hPa | 0 mm | - | 207 W/m² | - |
| 1777584165 | 8.33° C | 67% | 1014.1 hPa | 0 mm | - | 232 W/m² | - |
| 1777583863 | 8.33° C | 69% | 1013.9 hPa | 0 mm | - | 164 W/m² | - |
| 1777583560 | 7.78° C | 67% | 1014 hPa | 0 mm | - | 107 W/m² | - |
* Rain latest hour (hover to see other rain measurements)
** Current wind speed in m/s (hover to see current wind gust speed)